Home > Weather > Camrose > Past weeks

Flag for Canada Past Weather in Camrose, Alberta, Canada — Yesterday and Last 2 Weeks

Now
64 °F

Partly sunny.


Feels Like: 64 °F
Forecast: 45 / 63 °F
Wind: 5 mph from Southeast

Location: Edmonton International

Current Time: May 31, 2016 at 3:54:46 PM

Latest Report: May 31, 2016 at 3:00 PM


Visibility: 15 mi

Pressure: 30.16 "Hg (27.64 "Hg at 744m altitude)

Humidity: 40%

Dew Point: 39 °F

Location of CamroseLocation

Past Weather in Camrose — Graph

°F

Camrose Temperature Yesterday

Maximum temperature yesterday: 52 °F (at 12:00 PM)
Minimum temperature yesterday: 45 °F (at 5:00 AM)
Average temperature yesterday: 49 °F

High & Low Weather Summary for the Past Weeks

 TemperatureHumidityPressure
High79 °F (May 16, 4:00 PM)100% (May 21, 8:55 AM)30.30 "Hg (May 21, 8:55 AM)
Low36 °F (May 20, 8:00 AM)9% (May 16, 7:00 PM)29.47 "Hg (May 22, 1:00 PM)
Average51 °F75%29.88 "Hg
* Reported May 16 2:00 PM — May 31 2:00 PM, Camrose, Weather by CustomWeather, © 2016

Note: Actual official high and low records may vary slightly from our data, if they occured in-between our weather recording intervals... More about our weather records

Advertising

Camrose Weather History for the Previous 24 Hours

Scroll right to see more
 ConditionsComfort  
Time TempWeatherWind HumidityBarometerVisibility
2:00 PM
Tue, May 31
63 °FPartly sunny.3 mph42%30.19 "Hg15 mi
1:00 PM61 °FPartly sunny.5 mph48%30.20 "Hg15 mi
12:00 PM59 °FPartly sunny.No wind55%30.22 "Hg15 mi
11:00 AM55 °FPassing clouds.3 mph59%30.24 "Hg15 mi
10:00 AM54 °FPassing clouds.7 mph63%30.26 "Hg15 mi
9:00 AM50 °FPassing clouds.6 mph71%30.27 "Hg15 mi
8:00 AM48 °FPassing clouds.6 mph76%30.28 "Hg15 mi
7:00 AM43 °FPassing clouds.3 mph93%30.29 "Hg15 mi
6:00 AM37 °FPassing clouds.3 mph93%30.30 "Hg15 mi
5:00 AM37 °FPassing clouds.5 mph93%30.30 "Hg15 mi
4:00 AM41 °FPartly cloudy.3 mph87%30.28 "Hg15 mi
3:00 AM45 °FPassing clouds.6 mph87%30.28 "Hg15 mi
2:00 AM46 °FPartly cloudy.7 mph82%30.27 "Hg15 mi
1:00 AM48 °FOvercast.7 mph82%30.28 "Hg15 mi
12:00 AM48 °FPassing clouds.5 mph82%30.28 "Hg15 mi
11:00 PM
Mon, May 30
48 °FPassing clouds.5 mph82%30.28 "Hg15 mi
10:00 PM50 °FBroken clouds.5 mph82%30.27 "Hg15 mi
9:00 PM52 °FPartly sunny.5 mph77%30.26 "Hg15 mi
8:00 PM52 °FPartly sunny.12 mph72%30.25 "Hg15 mi
7:00 PM52 °FPartly sunny.10 mph77%30.26 "Hg15 mi
6:00 PM52 °FPartly sunny.15 mph77%30.24 "Hg15 mi
5:00 PM52 °FMore clouds than sun.18 mph82%30.24 "Hg15 mi
4:00 PM50 °FLight rain. Overcast.20 mph88%30.23 "Hg15 mi
3:00 PM50 °FLight rain. More clouds than sun.20 mph82%30.22 "Hg12 mi
Weather by CustomWeather, © 2016

See weather overviewHow to use our weather pages